If you wish to contribute or participate in the discussions about articles you are invited to join SKYbrary as a registered user

 Actions

Cape Town International Airport

From SKYbrary Wiki

FACT
Airport
ICAO: FACT – IATA: CPT
Summary
Name Cape Town International Airport
Region Africa
Territory South Africa ZA.gif
Location , Western Cape
Serving Cape Town
Elevation 46.025 m
151 ft
151 ft46.025 m
Coordinates 33° 57' 53.30" S, 18° 36' 6.00" E
Runways
Designator Length Width Surface ROPS
1/19 3201 m10,501.969 ft
61 m200.131 ft
ASP yes/yes
16/34 1701 m5,580.709 ft
46 m150.919 ft
ASP yes/yes


METAR
Observation FACT 180500Z 06004KT 6000 NSC 08/07 Q1020 NOSIG
Station Cape Town, Cape Town International Airport
Date/Time 18 September 2020 05:00:00
Wind direction 60°
Wind speed 04 kts
Lowest cloud amount nil significant cloud
Temperature 8°C
Dew point 7°C
Humidity 93%
QNH 1020 hPa
Weather condition n/a